Home   Weather   Celle   Past weeks

Flag for Germany Past Weather in Celle, Lower Saxony, Germany — Yesterday and Last 2 Weeks

Now
59 °F

Drizzle. More clouds than sun.


Feels Like: 58 °F
Forecast: 56 / 61 °F
Wind: 6 mph from Northwest

Location: Celle Airport

Current Time: Jul 24, 2017 at 8:58:34 pm

Latest Report: Jul 24, 2017 at 8:20 pm


Visibility: N/A

Pressure: 29.74 "Hg

Humidity: 94%

Dew Point: 57 °F

Location of CelleLocation

Past Weather in Celle — Graph

°F

Celle Temperature Yesterday

Maximum temperature yesterday: 72 °F (at 4:20 pm)
Minimum temperature yesterday: 57 °F (at 11:20 pm)
Average temperature yesterday: 64 °F

High & Low Weather Summary for the Past Weeks

 TemperatureHumidityPressure
High84 °F (Jul 19, 4:20 pm)100% (Jul 10, 10:20 pm)30.21 "Hg (Jul 10, 10:20 pm)
Low48 °F (Jul 18, 5:20 am)40% (Jul 14, 3:20 pm)29.71 "Hg (Jul 12, 11:43 am)
Average63 °F78%29.95 "Hg
* Reported Jul 9 7:20 pm — Jul 24 7:20 pm, Celle. Weather by CustomWeather, © 2017

Note: Actual official high and low records may vary slightly from our data, if they occured in-between our weather recording intervals... More about our weather records

Advertising

Celle Weather History for the Previous 24 Hours

Scroll right to see more
 ConditionsComfort  
Time TempWeatherWind HumidityBarometerVisibility
7:20 pm
Mon, Jul 24
59 °FLight rain. More clouds than sun.7 mph94%29.74 "HgN/A
6:20 pm61 °FDrizzle. More clouds than sun.7 mph88%29.77 "HgN/A
5:30 pm61 °FLight rain. Broken clouds.7 mph88%29.77 "HgN/A
5:20 pm61 °FLight rain. Broken clouds.6 mph88%29.77 "HgN/A
4:20 pm61 °FLight rain. Broken clouds.5 mph94%29.77 "HgN/A
3:20 pm63 °FLight rain. Low clouds.7 mph88%29.77 "HgN/A
2:20 pm61 °FLight rain. More clouds than sun.7 mph94%29.77 "HgN/A
1:20 pm59 °FLight rain. More clouds than sun.5 mph88%29.80 "Hg5 mi
12:58 pm59 °FRain. Overcast.5 mph94%29.80 "Hg4 mi
12:20 pm61 °FLight rain. Overcast.6 mph83%29.80 "HgN/A
11:20 am64 °FLight rain. Partly sunny.2 mph64%29.80 "HgN/A
10:20 am64 °FPartly sunny.3 mph60%29.80 "HgN/A
9:20 am64 °FPartly sunny.1 mph64%29.80 "HgN/A
8:20 am63 °FBroken clouds.No wind73%29.80 "HgN/A
7:20 am57 °FBroken clouds.2 mph82%29.83 "HgN/A
6:20 am54 °FBroken clouds.3 mph88%29.83 "HgN/A
5:20 am55 °FPartly cloudy.2 mph82%29.83 "HgN/A
4:20 am57 °FPartly cloudy.2 mph77%29.86 "HgN/A
3:20 am55 °FPassing clouds.No wind82%29.86 "HgN/A
2:20 am57 °FPartly cloudy.No wind77%29.89 "HgN/A
1:20 am55 °FPassing clouds.No wind82%29.89 "HgN/A
12:20 am59 °FPassing clouds.No wind72%29.92 "HgN/A
11:20 pm
Sun, Jul 23
57 °FPassing clouds.2 mph82%29.92 "HgN/A
10:20 pm59 °FPassing clouds.1 mph77%29.92 "HgN/A
9:20 pm63 °FScattered clouds.2 mph64%29.92 "HgN/A
8:20 pm68 °FScattered clouds.9 mph49%29.92 "HgN/A
Weather by CustomWeather, © 2017

See weather overviewHow to use our weather pages